Regional Weather Roundup
Issued by NWS

Home | Current Version | Previous Version | Graphics & Text | Print | Product List | Glossary On
Versions: 1 2 3 4 5 6 7 8 9 10 11 12 13 14 15 16 17 18 19 20 21 22 23 24 25 26 27 28 29 30 31 32 33 34 35 36 37 38 39 40 41 42 43 44 45 46 47 48 49 50
000
ASUS43 KDTX 012210
RWRMI
MICHIGAN HOURLY REGIONAL WEATHER ROUNDUP
NATIONAL WEATHER SERVICE DETROIT/PONTIAC MI
600 PM EDT TUE SEP 01 2015

NOTE: "FAIR" INDICATES FEW OR NO CLOUDS BELOW 12,000 FEET WITH NO
SIGNIFICANT WEATHER AND/OR OBSTRUCTION TO VISIBILITY.

MIZ047>049-052>055-059>063-066>070-074>076-081>083-012300-
SOUTHEAST LOWER MICHIGAN

CITY           SKY/WX    TMP DP  RH WIND       PRES   REMARKS
ADRIAN         MOSUNNY   89  65  44 SW10      30.04F HX  91
ALMA           SUNNY     86  69  56 SW6       30.01F
ANN ARBOR      MOSUNNY   86  68  54 SW5       30.03F
BAD AXE        MOSUNNY   84  69  60 SW5       30.03F
DETROIT CITY   SUNNY     86  69  56 S9        30.02F HX  90
DETROIT        MOSUNNY   88  66  48 SW9       30.03F HX  90
FLINT          SUNNY     89  65  44 W6        30.02F HX  91
GROSSE ILE     MOSUNNY   81  75  83 SE9       30.03S
HILLSDALE      SUNNY     86  67  52 SW3       30.06S
HOWELL         SUNNY     87  62  43 SW7       30.03S

CITY           SKY/WX    TMP DP  RH WIND       PRES   REMARKS
JACKSON        SUNNY     85  67  54 W7        30.04F
LAMBERTVILLE   MOSUNNY   88  67  50 SW3       30.04S HX  91
LANSING        SUNNY     85  69  58 SW8       30.03S
LAPEER         NOT AVBL
MASON          MOSUNNY   86  64  47 SW3       30.03F
MT. CLEMENS    MOSUNNY   83  71  66 SE8       30.01F
PONTIAC        MOSUNNY   87  64  46 SW7       30.02F
PORT HOPE        N/A     73  70  90 E10       30.01F
PORT HURON     SUNNY     84  70  61 SW3       30.02F
TRI CITIES     SUNNY     86  69  56 SW8       30.01F HX  90
YPSILANTI      MOSUNNY   90  69  50 SW8       30.04S HX  94
$$
MIZ043>046-050>051-056>058-064>065-071>073-077>080-012300-
SOUTHWEST LOWER MICHIGAN

CITY           SKY/WX    TMP DP  RH WIND       PRES   REMARKS
BATTLE CREEK   MOSUNNY   87  71  58 S8        30.03F HX  93
BENTON HARBOR  MOSUNNY   83  72  69 SW8       30.01F
BIG RAPIDS     MOSUNNY   83  70  64 SW9       30.01R
COLDWATER      SUNNY     85  68  57 SW7       30.04F
HOLLAND        SUNNY     83  71  67 SW16      30.02S
GRAND RAPIDS   MOSUNNY   85  69  58 SW13      30.01S
KALAMAZOO      MOSUNNY   84  69  60 SW10      30.03S
MARSHALL       SUNNY     86  70  58 S6        30.03F HX  90
MUSKEGON       MOSUNNY   81  71  71 S12       30.01S
$$
MIZ016>042-012300-
NORTHERN LOWER MICHIGAN

CITY           SKY/WX    TMP DP  RH WIND       PRES   REMARKS
ALPENA         SUNNY     83  69  62 E7        29.98F
BEAVER ISLAND  MOSUNNY   78  69  74 SW9       29.96F
BELLAIRE       MOSUNNY   87  67  49 S6        29.95F HX  90
CADILLAC       MOSUNNY   84  70  62 SW10      30.01S
CHARLEVOIX     MOSUNNY   81  70  68 W12       29.99R
FRANKFORT      CLEAR     79  71  78 SW9G16    29.96F
GAYLORD        MOSUNNY   85  67  54 SW10      30.00S
GRAYLING       SUNNY     85  67  55 SW5       30.01S
HARBOR SPRINGS MOSUNNY   84  71  65 CALM      29.95F
HOUGHTON LAKE  MOSUNNY   83  68  60 S7        30.01S
MANISTEE       SUNNY     84  70  61 SW12      29.98S
OSCODA         SUNNY     83  69  62 S9        29.98S
PELLSTON       MOSUNNY   86  69  56 SW5       29.96F HX  90
TRAVERSE CITY  MOSUNNY   89  69  51 S6        29.94F HX  93
$$
MIZ007>008-015-012300-
EASTERN UPPER MICHIGAN

CITY           SKY/WX    TMP DP  RH WIND       PRES   REMARKS
KINROSS        PTSUNNY   81  72  74 SW6       29.96S
MACKINAC ISLAN PTSUNNY   78  66  65 E5        29.96F
NEWBERRY       SUNNY     81  71  71 SW13G18   29.94F
S. S. MARIE    PTSUNNY   82  70  66 SW10      29.94S
$$
MIZ004>006-011>014-085-012300-
CENTRAL UPPER MICHIGAN

CITY           SKY/WX    TMP DP  RH WIND       PRES   REMARKS
MANISTIQUE     MOSUNNY   71  67  87 S8        29.94S FOG
ESCANABA       MOSUNNY   77  70  78 S7        29.91S
MENOMINEE      PTSUNNY   82  70  65 S8        29.91R
SAWYER-GWINN   MOSUNNY   86  64  48 W13       29.92S
$$
MIZ001>003-009>011-084-012300-
WESTERN UPPER MICHIGAN

CITY           SKY/WX    TMP DP  RH WIND       PRES   REMARKS
IRON MOUNTAIN  MOSUNNY   86  67  52 SW8       29.92S
HOUGHTON       PTSUNNY   79  69  71 W10       29.90S
IRONWOOD       MOSUNNY   82  72  69 S5        29.88S
$$

ABBREVIATIONS USED IN REMARKS
   TC - TEMPERATURE IN CELSIUS
  WCI - WIND CHILL INDEX
   HX - HEAT INDEX
  VSB - VISIBILITY




USA.gov is the U.S. government's official web portal to all federal, state and local government web resources and services.